Date String (YYYY-MM-DD hh:mm:ss) UTC,Instrument flags,Ambient pressure (hPa),Sample flow (lpm),Bypass flow (lpm),Sample temperature (°C),Ambient temperature (°C),ASC tube jacket temperature (°C),LED temperature (°C),Box temperature (°C),Sample RH (%),Span deviation,Mass concentration (μg/m³),Mass concentration (μg/m³),Mass concentration (μg/m³)
DateTimeUTC,F1_M11,P_M11,Q1_M11,Q2_M11,T1_M11,T2_M11,T3_M11,T4_M11,T5_M11,U1_M11,ZSPAN_M11,X0_M11,X2_M11,X1_M11
2023-02-22 13:00:00,,0808.4,5.00,0.00,22.8,21.7,00.0,31.5,24.3,06.7,0000.0,0004.47,0003.23,0002.85
2023-02-22 13:01:00,,0808.5,5.00,0.00,22.7,21.3,00.0,31.5,24.2,06.7,0000.0,0004.48,0003.25,0002.87
2023-02-22 13:02:00,,0808.6,5.00,0.00,22.7,21.0,00.0,31.5,24.1,06.7,0000.0,0004.52,0003.27,0002.87
2023-02-22 13:03:00,,0808.6,5.00,0.00,22.6,20.9,00.0,31.4,24.1,06.7,0000.0,0004.49,0003.26,0002.85
2023-02-22 13:04:00,,0808.7,5.00,0.00,22.7,21.8,00.0,31.4,24.3,06.7,0000.0,0004.49,0003.27,0002.83
2023-02-22 13:05:00,,0808.7,4.99,0.00,22.8,22.7,00.0,31.4,24.6,06.6,0000.0,0004.56,0003.29,0002.84
2023-02-22 13:06:00,,0808.7,4.97,0.00,22.9,23.3,00.0,31.4,24.8,06.5,0000.0,0004.61,0003.31,0002.85
2023-02-22 13:07:00,,0808.7,4.98,0.00,22.9,22.8,00.0,31.5,24.6,06.5,0000.0,0004.69,0003.32,0002.85
2023-02-22 13:08:00,,0808.6,5.00,0.00,22.8,22.2,00.0,31.5,24.4,06.5,0000.0,0004.69,0003.32,0002.84
2023-02-22 13:09:00,,0808.6,5.00,0.00,22.8,21.6,00.0,31.5,24.3,06.5,0000.0,0004.65,0003.31,0002.84
2023-02-22 13:10:00,,0808.6,5.00,0.00,22.7,21.2,00.0,31.5,24.2,06.5,0000.0,0004.70,0003.32,0002.85
2023-02-22 13:11:00,,0808.6,5.01,0.00,22.6,20.9,00.0,31.5,24.1,06.5,0000.0,0004.93,0003.34,0002.86
2023-02-22 13:12:00,,0808.7,5.01,0.00,22.6,21.3,00.0,31.5,24.2,06.4,0000.0,0004.96,0003.34,0002.84
2023-02-22 13:13:00,,0808.8,4.98,0.00,22.7,22.2,00.0,31.4,24.5,06.4,0000.0,0004.80,0003.29,0002.83
2023-02-22 13:14:00,,0808.9,5.02,0.00,22.8,23.2,00.0,31.5,24.7,06.4,0000.0,0004.83,0003.30,0002.83
2023-02-22 13:15:00,,0808.9,4.98,0.00,22.9,23.3,00.0,31.5,24.8,06.4,0000.0,0004.68,0003.26,0002.81
2023-02-22 13:16:00,,0808.9,5.00,0.00,22.9,22.7,00.0,31.5,24.6,06.4,0000.0,0004.64,0003.25,0002.81
2023-02-22 13:17:00,,0808.8,5.01,0.00,22.9,22.1,00.0,31.5,24.4,06.4,0000.0,0004.51,0003.21,0002.80
2023-02-22 13:18:00,,0808.7,5.00,0.00,22.8,21.6,00.0,31.5,24.3,06.4,0000.0,0004.42,0003.19,0002.81
2023-02-22 13:19:00,,0808.7,5.00,0.00,22.7,21.2,00.0,31.5,24.2,06.4,0000.0,0004.51,0003.21,0002.82
2023-02-22 13:20:00,,0808.7,5.00,0.00,22.7,20.9,00.0,31.5,24.1,06.4,0000.0,0004.65,0003.24,0002.84
2023-02-22 13:21:00,,0808.8,5.01,0.00,22.7,21.2,00.0,31.5,24.2,06.4,0000.0,0004.80,0003.27,0002.84
2023-02-22 13:22:00,,0808.8,5.01,0.00,22.7,22.2,00.0,31.5,24.5,06.4,0000.0,0004.79,0003.28,0002.84
2023-02-22 13:23:00,,0808.7,5.00,0.00,22.8,23.1,00.0,31.5,24.7,06.4,0000.0,0004.71,0003.29,0002.86
2023-02-22 13:24:00,,0808.7,4.99,0.00,22.9,23.4,00.0,31.5,24.8,06.3,0000.0,0004.84,0003.31,0002.86
2023-02-22 13:25:00,,0808.7,5.02,0.00,22.9,22.7,00.0,31.5,24.7,06.3,0000.0,0004.78,0003.30,0002.87
2023-02-22 13:26:00,,0808.7,5.01,0.00,22.8,22.0,00.0,31.5,24.4,06.3,0000.0,0004.78,0003.31,0002.90
2023-02-22 13:27:00,,0808.8,5.00,0.00,22.8,21.4,00.0,31.6,24.2,06.3,0000.0,0004.81,0003.32,0002.92
2023-02-22 13:28:00,,0808.8,5.00,0.00,22.7,21.2,00.0,31.5,24.1,06.3,0000.0,0004.91,0003.35,0002.93
2023-02-22 13:29:00,,0808.8,5.01,0.00,22.8,21.9,00.0,31.5,24.4,06.2,0000.0,0005.01,0003.38,0002.94
2023-02-22 13:30:00,,0808.9,4.97,0.00,22.8,22.8,00.0,31.5,24.6,06.2,0000.0,0004.92,0003.36,0002.94
2023-02-22 13:31:00,,0808.9,4.97,0.00,23.0,23.4,00.0,31.5,24.8,06.1,0000.0,0004.79,0003.33,0002.91
2023-02-22 13:32:00,,0808.9,5.00,0.00,23.0,23.0,00.0,31.6,24.7,06.1,0000.0,0004.73,0003.32,0002.90
2023-02-22 13:33:00,,0808.9,5.00,0.00,22.9,22.3,00.0,31.6,24.5,06.1,0000.0,0004.59,0003.29,0002.91
2023-02-22 13:34:00,,0808.9,4.99,0.00,22.8,21.6,00.0,31.6,24.3,06.2,0000.0,0004.83,0003.30,0002.92
2023-02-22 13:35:00,,0808.9,5.00,0.00,22.8,21.2,00.0,31.6,24.1,06.2,0000.0,0006.25,0003.33,0002.94
2023-02-22 13:36:00,,0809.0,5.00,0.00,22.7,20.9,00.0,31.6,24.1,06.2,0000.0,0006.29,0003.33,0002.93
2023-02-22 13:37:00,,0809.0,5.01,0.00,22.7,21.2,00.0,31.5,24.1,06.2,0000.0,0006.39,0003.35,0002.92
2023-02-22 13:38:00,,0809.0,4.98,0.00,22.8,22.2,00.0,31.5,24.4,06.2,0000.0,0006.46,0003.35,0002.92
2023-02-22 13:39:00,,0809.0,5.00,0.00,22.9,23.1,00.0,31.5,24.7,06.2,0000.0,0006.42,0003.35,0002.92
2023-02-22 13:40:00,,0809.1,5.04,0.00,22.9,23.3,00.0,31.6,24.8,06.2,0000.0,0006.44,0003.34,0002.92
2023-02-22 13:41:00,,0809.1,5.00,0.00,22.9,22.6,00.0,31.6,24.6,06.2,0000.0,0006.49,0003.35,0002.93
2023-02-22 13:42:00,,0809.1,5.02,0.00,22.9,22.0,00.0,31.6,24.4,06.2,0000.0,0006.44,0003.35,0002.94
2023-02-22 13:43:00,,0809.0,5.01,0.00,22.8,21.5,00.0,31.6,24.3,06.2,0000.0,0006.46,0003.37,0002.96
2023-02-22 13:44:00,,0809.0,4.99,0.00,22.7,21.1,00.0,31.6,24.1,06.2,0000.0,0006.56,0003.38,0002.95
2023-02-22 13:45:00,,0809.0,5.00,0.00,22.7,20.7,00.0,31.5,24.0,06.2,0000.0,0006.52,0003.37,0002.95
2023-02-22 13:46:00,,0809.1,5.00,0.00,22.6,21.0,00.0,31.5,24.1,06.2,0000.0,0004.98,0003.37,0002.94
2023-02-22 13:47:00,,0809.1,5.02,0.00,22.7,22.0,00.0,31.5,24.4,06.2,0000.0,0006.17,0003.38,0002.94
2023-02-22 13:48:00,,0809.0,5.02,0.00,22.8,22.8,00.0,31.5,24.6,06.2,0000.0,0006.26,0003.37,0002.94
2023-02-22 13:49:00,,0809.0,4.97,0.00,22.9,23.2,00.0,31.5,24.8,06.2,0000.0,0007.22,0003.37,0002.95
2023-02-22 13:50:00,,0809.0,4.98,0.00,22.9,22.6,00.0,31.5,24.7,06.2,0000.0,0007.71,0003.38,0002.97
2023-02-22 13:51:00,,0809.0,5.00,0.00,22.9,22.1,00.0,31.5,24.5,06.2,0000.0,0007.80,0003.41,0002.98
2023-02-22 13:52:00,,0809.1,5.01,0.00,22.8,21.6,00.0,31.5,24.3,06.2,0000.0,0007.82,0003.42,0002.99
2023-02-22 13:53:00,,0809.0,5.00,0.00,22.7,21.3,00.0,31.5,24.2,06.2,0000.0,0007.90,0003.43,0003.00
2023-02-22 13:54:00,,0809.1,5.01,0.00,22.7,21.0,00.0,31.5,24.1,06.2,0000.0,0007.90,0003.43,0003.00
2023-02-22 13:55:00,,0809.1,5.01,0.00,22.6,20.7,00.0,31.5,24.0,06.3,0000.0,0007.86,0003.42,0002.99
2023-02-22 13:56:00,,0809.1,5.00,0.00,22.6,20.9,00.0,31.5,24.0,06.3,0000.0,0007.87,0003.40,0002.97
2023-02-22 13:57:00,,0809.1,4.98,0.00,22.6,21.9,00.0,31.4,24.3,06.2,0000.0,0008.21,0003.37,0002.97
2023-02-22 13:58:00,,0809.2,5.00,0.00,22.7,22.9,00.0,31.4,24.6,06.2,0000.0,0007.97,0003.35,0002.96
2023-02-22 13:59:00,,0809.2,5.02,0.00,22.8,23.3,00.0,31.5,24.7,06.2,0000.0,0007.78,0003.33,0002.95
